Weather History for Jordan, MT

Change the Weather History Date:

Tuesday, October 19, 2010

  Actual Average Record
Temperature  
Mean Temperature 47 °F 43 °F  
Max Temperature 63 °F 58 °F 84 °F (2003)
Min Temperature 31 °F 28 °F 5 °F (1930)
Degree Days  
Heating Degree Days 18 22  
Month to date heating degree days 242 350  
Since 1 July heating degree days 556 676  
Cooling Degree Days 0 0  
Month to date cooling degree days 0 0  
Year to date cooling degree days 367 420  
Moisture  
Dew Point 31 °F    
Average Humidity 61    
Maximum Humidity 89    
Minimum Humidity 32    
Precipitation  
Precipitation 0.00 in 0.03 in 0.17 in (1957)
Month to date precipitation 0.44 0.58  
Year to date precipitation 15.67 11.71  
Snow  
Snow 0.00 in - - ()
Month to date snowfall 0.0  
Since 1 July snowfall 0.0  
Since 1 September snowfall 0.0  
Snow Depth 0.00 in    
Sea Level Pressure  
Sea Level Pressure 30.04 in    
Wind  
Wind Speed 8 mph (WNW)    
Max Wind Speed 18 mph    
Max Gust Speed 22 mph    
T = Trace of Precipitation, MM = Missing Value Source: NWS Daily Summary

Daily Weather History Graph

Daily Weather History Graph

Search for Another Location

Airport:

Trip Planner

Search our weather history database for the weather conditions in past years. The results will help you decide how hot, cold, wet, or windy it might be!

Date:

Astronomy

Oct. 19, 2010 Rise Set
Actual Time 7:32 AM MDT 6:12 PM MDT
Civil Twilight 7:00 AM MDT 6:43 PM MDT
Nautical Twilight 6:25 AM MDT 7:19 PM MDT
Astronomical Twilight 5:49 AM MDT 7:54 PM MDT
Moon 4:31 PM MDT (10/19) 4:09 AM MDT (10/19)
Length of Visible Light 11h 42m
Length of Day
10h 40m
Waxing Gibbous, 90% of the Moon is Illuminated
Oct 19
Waxing Gibbous
Oct 22
Full
Oct 30
Last Quarter
Nov 5
New
Nov 13
First Quarter

Hourly Weather History & Observations

Time (MDT) Temp. Windchill Dew Point Humidity Pressure Visibility Wind Dir Wind Speed Gust Speed Precip Events Conditions
12:48 AM 34.0 °F 28.0 °F 30.9 °F 89% 30.02 in - West 6.9 mph - N/A   Unknown
1:48 AM 33.1 °F 26.9 °F 30.0 °F 89% 30.02 in - West 6.9 mph - N/A   Unknown
2:48 AM 34.0 °F 26.0 °F 30.0 °F 85% 30.02 in - WNW 10.4 mph - N/A   Unknown
3:48 AM 34.0 °F 27.2 °F 28.9 °F 82% 30.04 in - WNW 8.1 mph - N/A   Unknown
4:48 AM 33.1 °F 27.7 °F 28.0 °F 82% 30.05 in - WNW 5.8 mph - N/A   Unknown
5:48 AM 32.0 °F 25.6 °F 26.1 °F 79% 30.07 in - WNW 6.9 mph - N/A   Unknown
6:48 AM 32.0 °F 27.5 °F 26.1 °F 79% 30.09 in - West 4.6 mph - N/A   Unknown
7:48 AM 33.1 °F 26.1 °F 26.1 °F 75% 30.11 in - West 8.1 mph - N/A   Unknown
8:48 AM 36.0 °F 32.1 °F 28.9 °F 76% 30.11 in - West 4.6 mph - N/A   Unknown
9:48 AM 48.0 °F - 32.0 °F 54% 30.10 in - West 11.5 mph - N/A   Unknown
10:48 AM 54.0 °F - 32.0 °F 43% 30.09 in - West 13.8 mph - N/A   Unknown
11:48 AM 57.9 °F - 32.0 °F 37% 30.07 in - West 12.7 mph - N/A   Unknown
1:48 PM 61.0 °F - 30.9 °F 32% 30.04 in - WNW 15.0 mph - N/A   Unknown
2:48 PM 63.0 °F - 32.0 °F 31% 30.02 in - West 13.8 mph 20.7 mph N/A   Unknown
3:48 PM 62.1 °F - 33.1 °F 34% 30.01 in - WNW 11.5 mph - N/A   Unknown
4:48 PM 62.1 °F - 33.1 °F 34% 30.01 in - WNW 9.2 mph - N/A   Unknown
5:48 PM 53.1 °F - 35.1 °F 50% 30.02 in - NW 8.1 mph - N/A   Unknown
6:48 PM 46.9 °F - 34.0 °F 61% 30.02 in - Calm Calm - N/A   Unknown
7:48 PM 41.0 °F 39.0 °F 34.0 °F 76% 30.04 in - WNW 3.5 mph - N/A   Unknown
8:48 PM 42.1 °F 39.2 °F 33.1 °F 70% 30.02 in - WNW 4.6 mph - N/A   Unknown
9:48 PM 39.0 °F 34.0 °F 33.1 °F 79% 30.00 in - WNW 6.9 mph - N/A   Unknown
10:48 PM 36.0 °F 33.3 °F 32.0 °F 86% 30.00 in - WSW 3.5 mph - N/A   Unknown
11:48 PM 34.0 °F 29.8 °F 30.9 °F 89% 30.00 in - West 4.6 mph - N/A   Unknown